Nueva Ocotepeque, Honduras

9:54 PM CST on May 29, 2017 (GMT -0600)
Nueva Ocotepeque

Weather History for MHSC - November, 2012

Change the Weather History Date:

Wednesday, November 28, 2012

  Actual Average (MHSR) Record (MHSR)
Temperature  
Mean Temperature 70 °F -  
Max Temperature 74 °F 70 °F 80 °F (2001)
Min Temperature 66 °F 58 °F 53 °F (2014)
Cooling Degree Days 5    
Growing Degree Days 20 (Base 50)    
Moisture  
Dew Point 67 °F    
Average Humidity 84    
Maximum Humidity 94    
Minimum Humidity 64    
Precipitation  
Precipitation 0.00 in - - ()
Sea Level Pressure  
Sea Level Pressure 30.08 in    
Wind  
Wind Speed 15 mph ()    
Max Wind Speed 21 mph    
Max Gust Speed 26 mph    
Visibility 6.2 miles    
Events Rain    
Averages and records for this station are not official NWS values.
T = Trace of Precipitation, MM = Missing Value Source: Averaged Metar Reports

Daily Weather History Graph

Daily Weather History Graph

Search for Another Location

Airport or City:

Trip Planner

Search our weather history database for the weather conditions in past years. The results will help you decide how hot, cold, wet, or windy it might be!

Date:

Astronomy

Nov. 28, 2012 Rise Set
Actual Time 6:04 AM CST 5:25 PM CST
Civil Twilight 5:41 AM CST 5:48 PM CST
Nautical Twilight 5:15 AM CST 6:14 PM CST
Astronomical Twilight 4:48 AM CST 6:40 PM CST
Moon 5:40 PM CST (11/28) 6:01 AM CST (11/28)
Length of Visible Light 12h 06m
Length of Day
11h 21m
Full, 100% of the Moon is Illuminated
Nov 28
Full
Dec 6
Last Quarter
Dec 13
New
Dec 19
First Quarter
Dec 28
Full

Hourly Weather History & Observations

Time (CST) Temp. Heat Index Dew Point Humidity Pressure Visibility Wind Dir Wind Speed Gust Speed Precip Events Conditions
12:47 AM 71.6 °F - 68.0 °F 88% 30.10 in 6.2 mi North 16.1 mph - N/A   Light Drizzle
12:57 AM 71.6 °F - 68.0 °F 88% 30.10 in 6.2 mi North 20.7 mph - N/A   Overcast
12:58 AM 70.7 °F - 68.7 °F 93% 30.10 in 6.2 mi North 19.6 mph - 0.00 in   Overcast
1:54 AM 71.6 °F - 68.0 °F 88% 30.08 in 6.2 mi North 16.1 mph - N/A   Light Drizzle
1:57 AM 71.6 °F - 68.0 °F 88% 30.08 in 6.2 mi North 15.0 mph - N/A   Overcast
1:58 AM 70.9 °F - 68.2 °F 91% 30.08 in 6.2 mi North 15.0 mph - 0.00 in   Overcast
2:38 AM 71.6 °F - 68.0 °F 88% 30.08 in 6.2 mi North 16.1 mph 20.7 mph N/A   Overcast
2:58 AM 71.6 °F - 67.3 °F 86% 29.97 in 6.2 mi North 17.3 mph - 0.00 in   Overcast
3:13 AM 71.6 °F - 68.0 °F 88% 30.08 in 6.2 mi North 15.0 mph - N/A   Overcast
3:58 AM 72.0 °F - 66.9 °F 84% 29.99 in 6.2 mi North 17.3 mph - N/A   Overcast
4:58 AM 70.7 °F - 67.1 °F 88% 30.00 in 6.2 mi NNW 12.7 mph - N/A   Mostly Cloudy
5:58 AM 70.9 °F - 66.9 °F 87% 30.01 in 6.2 mi North 11.5 mph - N/A   Overcast
6:23 AM 71.6 °F - 66.2 °F 83% 30.12 in 6.2 mi North 12.7 mph - N/A   Overcast
6:58 AM 71.2 °F - 67.1 °F 87% 30.05 in 6.2 mi North 11.5 mph - N/A   Overcast
7:53 AM 73.4 °F - 66.2 °F 78% 30.16 in 6.2 mi NNW 16.1 mph - N/A   Overcast
7:58 AM 72.5 °F - 66.7 °F 82% 30.06 in 6.2 mi North 17.3 mph - N/A   Overcast
8:28 AM 73.4 °F - 66.2 °F 78% 30.17 in 6.2 mi North 19.6 mph 24.2 mph N/A   Overcast
8:58 AM 74.5 °F - 67.1 °F 78% 30.08 in 6.2 mi North 19.6 mph - N/A   Overcast
9:00 AM 72 °F - 66 °F 77%  in 6 mi NNW 11.5 mph - -   Haze
9:33 AM 75.2 °F - 68.0 °F 78% 30.19 in 6.2 mi North 20.7 mph 25.3 mph N/A   Overcast
9:58 AM 76.8 °F - 67.6 °F 73% 30.09 in 6.2 mi North 18.4 mph 24.2 mph N/A   Overcast
10:08 AM 75.2 °F - 68.0 °F 78% 30.18 in 6.2 mi North 19.6 mph - N/A   Overcast
10:43 AM 77.0 °F - 68.0 °F 74% 30.17 in 6.2 mi North 20.7 mph 26.5 mph N/A   Overcast
10:58 AM 76.3 °F - 67.5 °F 74% 30.05 in 6.2 mi North 20.7 mph - N/A   Overcast
11:58 AM 79.5 °F - 67.3 °F 66% 30.02 in 6.2 mi North 20.7 mph - N/A   Mostly Cloudy
12:00 PM 73 °F - 66 °F 74%  in 6 mi NNW 13.8 mph - -   Partly Cloudy
12:58 PM 80.4 °F 82.8 °F 67.3 °F 64% 29.99 in 6.2 mi North 20.7 mph 25.3 mph N/A   Overcast
1:58 PM 79.2 °F - 67.3 °F 67% 29.97 in 6.2 mi North 20.7 mph 26.5 mph N/A   Mostly Cloudy
2:58 PM 74.8 °F - 67.1 °F 77% 29.98 in 6.2 mi North 18.4 mph 26.5 mph N/A   Overcast
3:00 PM 69 °F - 65 °F 83%  in 6 mi NNW 13.8 mph - -   Partly Cloudy
3:58 PM 72.9 °F - 66.7 °F 81% 29.97 in 6.2 mi North 19.6 mph - N/A   Overcast
4:58 PM 70.9 °F - 66.7 °F 87% 29.99 in 6.2 mi North 20.7 mph - N/A   Mostly Cloudy
4:59 PM 71.6 °F - 66.2 °F 83% 30.08 in 6.2 mi North 19.6 mph - N/A   Light Drizzle
5:05 PM 69.8 °F - 68.0 °F 94% 30.09 in 6.2 mi North 16.1 mph - N/A   Overcast
5:06 PM 69.8 °F - 68.0 °F 94% 30.09 in 6.2 mi North 16.1 mph - N/A   Light Drizzle
5:40 PM 69.8 °F - 66.2 °F 88% 30.11 in 6.2 mi North 18.4 mph - N/A   Overcast
5:47 PM 69.8 °F - 66.2 °F 88% 30.11 in 6.2 mi North 19.6 mph - N/A   Light Drizzle
5:58 PM 69.6 °F - 66.4 °F 89% 30.02 in 6.2 mi North 18.4 mph - N/A   Light Drizzle
6:00 PM 69 °F - 63 °F 75%  in 6 mi North 11.5 mph - -   Haze
6:05 PM 69.8 °F - 66.2 °F 88% 30.11 in 6.2 mi North 19.6 mph - N/A   Overcast
6:10 PM 69.8 °F - 66.2 °F 88% 30.12 in 6.2 mi North 18.4 mph - N/A Rain Light Rain
6:12 PM 69.8 °F - 66.2 °F 88% 30.12 in 6.2 mi North 15.0 mph 23.0 mph N/A   Overcast
6:19 PM 69.8 °F - 66.2 °F 88% 30.12 in 6.2 mi North 16.1 mph 23.0 mph N/A Rain Light Rain
6:29 PM 69.8 °F - 66.2 °F 88% 30.13 in 6.2 mi North 17.3 mph - N/A   Overcast
6:58 PM 69.1 °F - 66.7 °F 92% 30.05 in 6.2 mi North 16.1 mph - N/A   Overcast
7:18 PM 69.8 °F - 66.2 °F 88% 30.15 in 6.2 mi North 13.8 mph - N/A   Mostly Cloudy
7:58 PM 69.1 °F - 66.4 °F 91% 30.07 in 6.2 mi North 13.8 mph - N/A   Mostly Cloudy
8:29 PM 69.8 °F - 66.2 °F 88% 30.18 in 6.2 mi North 15.0 mph - N/A Rain Light Rain
8:40 PM 68.0 °F - 66.2 °F 94% 30.18 in 6.2 mi North 12.7 mph - N/A   Overcast
8:58 PM 68.5 °F - 66.7 °F 94% 30.08 in 6.2 mi North 13.8 mph - N/A   Overcast
9:58 PM 68.4 °F - 66.6 °F 94% 30.07 in 6.2 mi North 13.8 mph - N/A   Overcast
10:58 PM 68.5 °F - 65.7 °F 90% 30.06 in 6.2 mi North 13.8 mph - N/A   Overcast
11:58 PM 68.5 °F - 65.5 °F 90% 30.05 in 6.2 mi North 15.0 mph - N/A   Mostly Cloudy